Showing default

HEAD-1, 43011

Orbit data source: Space-Track

HEAD-1, 43011 is a payload satellite owned by HEAD (CN) in SSO that was launched on Tue, 14 Nov 2017 UTC via a CHANG ZHENG 4C launch vehicle from the Taiyaun Space Center, China (TSC). Payload-class satellites include a variety of spacecraft equipped with specific instruments for various scientific and technological missions. These include communications satellites like Starlink; space stations such as the ISS; scientific satellites like the Hubble; Earth observation satellites from companies like Planet Labs, Umbra, and HawkEye 360; GPS; miniature CubeSats for education and research; and military/defense satellites.

Loading next visibility...
Identifier
43011, 2017-072B
Orbit
SSO
Country
Flag of CNCN / PRC
Related business
Manufacturer
LIZH/SAST
Mission
Operational Commercial Communications
Bus & Motor
HEAD-1, Unknown motor
Mass
45 kg wet, 45 kg dry
Launch date (UTC)
2017-11-14 (8 years ago)
Launch vehicle
CHANG ZHENG 4C
Launch site
Taiyaun Space Center, China (TSC)
Object type
Payload
Rocket body
Debris
Shape & HBR
Box + 2 Pan, 1.0 m
Radar Cross Section
0.223 m², Medium (>0.1 m² and < 1m²)

Expand to show TLE details & history
Last TLE update: 4 hours ago

TLE from 4 hours ago
0 HEAD-1
1 43011U 17072B   26126.29179581  .00000594  00000-0  25433-3 0  9993
2 43011  98.9570 143.6769 0008792 277.4387  82.5795 14.28772457441371
Epoch: 2026-05-06T07:00Z
TLE epoch observation values (Epoch: 2026-05-06T07:00:11.157Z)
Latitude
0.00006°
Longitude
174.47601°
Altitude
797.946 km
Speed
7.455 km/s
True Right ascension
09h 34m 42s
True Declination
0° 00' 00"
Sunlit
Object was in daylight at epoch
Visualization orbit readout
Latitude
Unknown
Longitude
Unknown
Altitude
Unknown
Speed
Unknown
Apparent Right ascension
Unknown
Apparent Declination
Unknown
Sunlit
N/A
Visualization observer readout
Local Sidereal Time
19:11:15
Azimuth
Unknown
Elevation
Unknown
Doppler factor
Unknown
Orbital elements
Apogee altitude
799.301 km
Perigee altitude
786.691 km
Semi-major axis
7,171.133 km
Eccentricity
0.00088
Inclination
98.957°
RAAN
143.6769°
Arg. of periapsis
277.4387°
True anomaly
82.67942°
Mean anomaly
82.5795°
Eccentric anomaly
82.62946°
Mean motion
3.57406 °/min
Orbital period
100.73 mins
BSTAR
0.00025433
Loading maneuver chart data...
Computing Atmospheric mass density...
Loading historical data...
Loading historical data...
Loading historical data...
Loading historical data...
Loading historical data...
Loading historical data...
Loading historical data...
Other satellites on launch #72 in the year 2017 (2017-11-14 UTC)

Documentation

Showing up to 5 results
|